This demonstration page uses our WeatherBlox Daily Observations layout. Learn more.

Left ArrowRight Arrow

39.08367, -84.50855

Hourly Observations for August 6, 2015

Temp ( °F °C ) Dew Point ( °F °C ) Humidity (%) Winds ( mph kmh ) Pressure ( in mb ) Visibility ( mi km ) Precip ( " mm )
12:53 am 00:53 Cloudy 73 22.8 64 17.8 74 74 N 5 7 29.96 1014 10 16 N/A
1:53 am 01:53 Cloudy 71 21.7 66 18.9 84 84 N N/A 29.94 1014 10 16 N/A
2:53 am 02:53 Cloudy 71 21.7 64 17.8 79 79 NNE 6 9 29.93 1013 10 16 N/A
3:53 am 03:53 Cloudy 69 20.6 66 18.9 90 90 ENE 5 7 29.92 1013 10 16 N/A
4:53 am 04:53 Cloudy 68 20 65 18.3 90 90 NE 7 11 29.93 1013 10 16 N/A
5:53 am 05:53 Cloudy with Light Rain 67 19.4 65 18.3 93 93 NE 6 9 29.93 1013 9 14 0.01 0.25
6:12 am 06:12 Cloudy with Rain 66 19 64 18 94 94 NE 7 11 29.91 1013 6 10 N/A
6:46 am 06:46 Cloudy with Light Rain 66 19 64 18 94 94 NE 7 11 29.91 1013 10 16 N/A
6:53 am 06:53 Cloudy with Light Rain 66 18.9 65 18.3 96 96 ENE 7 11 29.93 1013 7 11 0.04 1.02
7:26 am 07:26 Cloudy with Rain 66 19 64 18 94 94 NE 6 9 29.91 1013 3 5 N/A
7:41 am 07:41 Cloudy with Heavy Rain 65 18.3 65 18.3 100 100 NNE 9 15 29.91 1013 2 3 0.16 4.06
7:53 am 07:53 Cloudy with Rain 65 18.3 65 18.3 100 100 NE 7 11 29.93 1013 3 4 0.20 5.08
8:01 am 08:01 Cloudy with Light Rain 65 18.3 64 17.8 97 97 ENE 9 15 29.91 1013 7 11 N/A
8:08 am 08:08 Cloudy with Light Rain 64 18 64 18 100 100 ENE 9 15 29.91 1013 10 16 N/A
8:53 am 08:53 Cloudy with Light Rain 65 18.3 64 17.8 97 97 E 8 13 29.93 1014 8 13 0.01 0.25
9:28 am 09:28 Cloudy with Heavy Rain 64 18 63 17 94 94 E 6 9 29.91 1013 3 4 N/A
9:35 am 09:35 Cloudy with Rain 64 17.8 64 17.8 100 100 ENE 6 9 29.91 1013 3 5 0.09 2.29
9:53 am 09:53 Cloudy with Light Rain 65 18.3 64 17.8 97 97 ENE 6 9 29.94 1014 3 5 0.10 2.54
10:53 am 10:53 Cloudy with Rain 64 17.8 64 17.8 100 100 ENE 5 7 29.94 1014 3 5 0.10 2.54
11:10 am 11:10 Cloudy with Heavy Rain 64 18 64 18 100 100 NE 7 11 29.91 1013 2 3 N/A
11:22 am 11:22 Cloudy with Heavy Rain 64 17.8 64 17.8 100 100 ENE 6 9 29.91 1013 2 2 0.13 3.30
11:35 am 11:35 Cloudy with Rain 64 17.8 64 17.8 100 100 ENE 9 15 29.91 1013 3 5 0.17 4.32
11:53 am 11:53 Cloudy with Rain 65 18.3 63 17.2 93 93 E 10 17 29.93 1013 4 6 0.20 5.08
12:07 pm 12:07 Cloudy with Light Rain 65 18.3 64 17.8 97 97 E 8 13 29.91 1013 6 10 0.01 0.25
12:53 pm 12:53 Cloudy with Light Rain 65 18.3 64 17.8 97 97 ENE 8 13 29.91 1013 5 8 0.03 0.76
1:40 pm 13:40 Cloudy with Light Rain 65 18.3 64 17.8 97 97 NE 8 13 29.91 1013 3 5 0.04 1.02
1:53 pm 13:53 Cloudy with Light Rain 65 18.3 64 17.8 97 97 ENE 8 13 29.90 1013 10 16 0.04 1.02
2:53 pm 14:53 Cloudy with Light Rain 65 18.3 64 17.8 97 97 ENE 8 13 29.90 1012 6 10 0.01 0.25
3:15 pm 15:15 Cloudy with Rain 65 18.3 64 17.8 97 97 NE 8 13 29.91 1013 3 4 0.03 0.76
3:18 pm 15:18 Cloudy with Light Rain 64 18 64 18 100 100 NE 7 11 29.91 1013 3 5 N/A
3:53 pm 15:53 Cloudy with Rain 65 18.3 65 18.3 100 100 NE 10 17 29.87 1012 3 5 0.10 2.54
4:18 pm 16:18 Cloudy with Light Rain 64 18 64 18 100 100 ENE 9 15 29.88 1012 3 5 N/A
4:53 pm 16:53 Cloudy 66 18.9 65 18.3 96 96 NE 9 15 29.87 1012 10 16 0.02 0.51
5:41 pm 17:41 Cloudy 66 18.9 64 17.8 93 93 NE 8 13 29.88 1012 8 13 N/A
5:53 pm 17:53 Cloudy 66 18.9 65 18.3 96 96 NNE 8 13 29.87 1011 9 14 N/A
6:53 pm 18:53 Cloudy 66 18.9 64 17.8 93 93 NE 12 19 29.86 1011 10 16 0.01 0.25
7:53 pm 19:53 Cloudy with Light Rain 65 18.3 64 17.8 97 97 NE 12 19 29.87 1011 5 8 N/A
8:53 pm 20:53 Cloudy 65 18.3 64 17.8 97 97 NNE 9 15 29.87 1011 10 16 N/A
9:37 pm 21:37 Cloudy 65 18.3 63 17.2 93 93 NNE 8 13 29.88 1012 10 16 N/A
9:53 pm 21:53 Cloudy 65 18.3 63 17.2 93 93 NE 7 11 29.86 1011 10 16 N/A
10:53 pm 22:53 Cloudy 65 18.3 62 16.7 90 90 NNE 7 11 29.87 1012 10 16 N/A
11:10 pm 23:10 Cloudy 64 18 63 17 94 94 NNE 3 6 29.88 1012 10 16 N/A
11:53 pm 23:53 Cloudy 65 18.3 61 16.1 87 87 NNE 3 6 29.89 1012 10 16 N/A

Powered by AerisWeather